Regional Weather Roundup
Issued by NWS

Home | Current Version | Previous Version | Graphics & Text | Print | Product List | Glossary On
Versions: 1 2 3 4 5 6 7 8 9 10 11 12 13 14 15 16 17 18 19 20 21 22 23 24 25 26 27 28 29 30 31 32 33 34 35 36 37 38 39 40 41 42 43 44 45 46 47 48 49 50
000
ASUS43 KMKX 300711
RWRWI

WISCONSIN REGIONAL WEATHER ROUNDUP
NATIONAL WEATHER SERVICE MILWAUKEE/SULLIVAN WI
200 AM CDT TUE MAY 30 2017

NOTE: "FAIR" INDICATES FEW OR NO CLOUDS BELOW 12,000 FEET WITH NO
SIGNIFICANT WEATHER AND/OR OBSTRUCTIONS TO VISIBILITY.

WIZ001-002-006>008-014>016-023>028-300800-
NORTHWEST WISCONSIN

CITY           SKY/WX    TMP DP  RH WIND       PRES   REMARKS
SUPERIOR ARPT  NOT AVBL
ASHLAND        CLOUDY    52  45  77 SW7       29.76S
HAYWARD        CLOUDY    52  46  80 SW7       29.78F
SIREN          CLOUDY    51  45  79 W9        29.81F
CUMBERLAND     PTCLDY    48  45  87 W8        29.82S
RICE LAKE      PTCLDY    50  46  84 W5        29.83S
CHETEK         MOCLDY    49  46  90 SW3       29.82F
LADYSMITH      CLOUDY    50  47  88 SW6       29.82S
EAU CLAIRE     MOCLDY    52  47  83 W7        29.82F
MENOMONIE      PTCLDY    54  48  81 W6        29.84S
NEW RICHMOND   PTCLDY    51  45  80 W6        29.84F
OSCEOLA        CLEAR     51  47  86 W8        29.87S
$$

WIZ003>005-009-010-017-018-300800-
NORTH CENTRAL WISCONSIN

CITY           SKY/WX    TMP DP  RH WIND       PRES   REMARKS
MANITOWISH WTR CLOUDY    48  48 100 SW7       29.75F
ARBOR VITAE    CLOUDY    52  49  90 W9        29.76S
WOODRUFF       CLOUDY    52  49  90 W9        29.76S
RHINELANDER    PTCLDY    49  47  93 W7        29.78F
EAGLE RIVER    CLOUDY    47  46  96 CALM      29.75F
LAND O LAKES   CLOUDY    47  46  95 CALM      29.77S
PHILLIPS       CLOUDY    48  48  97 SW7       29.78F
TOMAHAWK       PTCLDY    47  46  96 CALM      29.79F
MEDFORD        MOCLDY    48  46  91 W7        29.80F
MERRILL        CLEAR     49  49  98 W6        29.80F
$$

WIZ029-030-035-036-043>047-300800-
CENTRAL WISCONSIN

CITY           SKY/WX    TMP DP  RH WIND       PRES   REMARKS
WAUSAU         CLEAR     50  49  96 W8        29.79F
MOSINEE        CLEAR     48  48 100 W7        29.82F
MARSHFIELD     CLEAR     48  45  89 W5        29.81F
STEVENS POINT  PTCLDY    49  49 100 SW6       29.83R
WAUPACA        CLEAR     55  49  82 W7        29.81S
WAUTOMA        CLEAR     51  49  92 W8        29.84S
WISC RAPIDS    CLEAR     50  48  93 W7        29.84S
CAMP DOUGLAS   CLEAR     46  45  97 W5        29.84F
$$

WIZ011>013-019>022-031-037>040-048>050-300800-
NORTHEAST WISCONSIN

CITY           SKY/WX    TMP DP  RH WIND       PRES   REMARKS
ANTIGO         CLOUDY    49  49  97 W8        29.80R
SHAWANO        PTCLDY    54  50  86 W6        29.79S
OCONTO         MOCLDY    51  49  93 W3        29.78S
STURGEON BAY   PTCLDY    53  50  89 SW9       29.78S
GREEN BAY      CLEAR     54  50  86 SW6       29.79F
MANITOWOC      CLEAR     54  49  83 W7        29.81S
APPLETON       PTCLDY    52  46  82 W8        29.80R
CLINTONVILLE   PTCLDY    52  46  82 W6        29.80S
OSHKOSH        CLEAR     53  48  83 VRB3      29.82R
$$

WIZ032>034-041-042-053>061-300800-
SOUTHWEST WISCONSIN

CITY           SKY/WX    TMP DP  RH WIND       PRES   REMARKS
LA CROSSE      PTCLDY    56  50  80 W10       29.87R
SPARTA         PTCLDY    42  42 100 CALM      29.87S
VIROQUA        MOCLDY    51  49  93 N7        29.87F
BOSCOBEL       MOCLDY    52  47  83 SW5       29.90R
PRAIRIE DU CHI CLEAR     55  46  71 W7        29.90S
PLATTEVILLE    CLEAR     52  49  89 W6        29.92R
$$

WIZ056-057-062-063-064-067-068-300800-
SOUTH CENTRAL WISCONSIN

CITY           SKY/WX    TMP DP  RH WIND       PRES   REMARKS
REEDSBURG      CLEAR     52  48  87 W5        29.87R
BARABOO/DELLS  CLEAR     51  46  82 W6        29.87S
LONE ROCK      CLEAR     53  47  79 CALM      29.89R
MINERAL POINT  CLEAR     52  48  87 W6        29.91S
MADISON        CLEAR     54  48  80 VRB3      29.87R
MIDDLETON      CLEAR     52  48  86 W7        29.88S
WATERTOWN      CLEAR     52  49  90 SW5       29.86S
MONROE         PTCLDY    54  45  71 W12       29.90F
JANESVILLE     CLEAR     55  45  67 W8        29.89S
$$

WIZ051-052-058>065-066-070>072-300800-
SOUTHEAST WISCONSIN

CITY           SKY/WX    TMP DP  RH WIND       PRES   REMARKS
MILWAUKEE      CLEAR     57  49  74 W9        29.87S
WAUKESHA       CLEAR     50  46  87 SW6       29.88R
MILWAUKEE/TIMM   N/A     50  45  81 SW5       29.87S
RACINE         CLEAR     54  46  74 SW6       29.89R
KENOSHA        CLEAR     53  48  83 SW7       29.88R
FOND DU LAC    CLEAR     53  47  79 W8        29.83S
SHEBOYGAN      CLEAR     51  49  92 SW6       29.83R
WEST BEND      CLEAR     52  48  87 SW5       29.85S
JUNEAU         CLEAR     49  47  91 SW6       29.86S
$$

LSZ147-162-300800-
LAKE SUPERIOR

STATION/POSITION TIME  TEMP    WIND        PRES    WAVE
                       AIR SEA DIR/SP/G            HT/PER
                 (UTC) (F)     (DEG/KT/KT) (MB)    (FT/S)
W MID LAKE BUOY  0450   42 37  240/ 14/ 16 1006.3    2/ 4
DEVILS ISLAND    0700   47     260/ 13/ 14 1007.2F
SAXON HARBOR     0630   54     210/  6/  9 1007.1F
$$

LMZ867-665-643>646-300800-
LAKE MICHIGAN

STATION/POSITION TIME  TEMP    WIND        PRES    WAVE
                       AIR SEA DIR/SP/G            HT/PER
                 (UTC) (F)     (DEG/KT/KT) (MB)    (FT/S)
CHAMBERS ISLAND  0640   52     210/  6/  9 1007.5F
N MID LAKE BUOY  0450   46 41  220/ 10/ 12 1007.9    2/ 4
NORTHPORT PIER   0640   54     270/  6/ 13 1007.5S
KEWAUNEE LAKESHO 0648          260/  6/  9 1008.4F
SHEBOYGAN LAKESH 0700   55     240/  9/ 10 1009.7R
PORT WASHINGTON  0640   55     250/  5/  7 1011.5S
ATWATER BUOY     0609   55     230/ 10/ 12 1011.3R
MILWAUKEE LAKESH 0650   57     240/  9/ 10   N/A
S MID LAKE BUOY  0450   51 48  250/  8/  8 1011.8    1/ 4
KENOSHA   LAKESH 0700   58     240/  5/  8 1011.9
$$

TC  - TEMPERATURE IN CELSIUS
VSB - VISIBILITY IN STATUTE MILES
WCI - WIND CHILL INDEX
HX  - HEAT INDEX





USA.gov is the U.S. government's official web portal to all federal, state and local government web resources and services.